Location: Cambridge (historical)
(38.6883°N, 119.0140°W)
Time: 11:55:51
(UTC+00:00)

XW-2D - Pass Details

Date: 01 October 2021
Orbit: 503 x 524 km, 97.5° (Epoch: 18 October)

Event Time Altitude Azimuth Distance (km) Brightness Sun altitude
Rises 13:07:23 0° 27° (NNE) 2,617 ? -9.6°
Reaches altitude 10° 13:09:53 10° 44° (NE) 1,724 ? -9.1°
Maximum altitude 13:12:44 21° 95° (E) 1,176 ? -8.5°
Drops below altitude 10° 13:15:35 10° 146° (SE) 1,708 ? -8.0°
Sets 13:18:02 0° 162° (SSE) 2,585 ? -7.5°
